| time (UTC) | temp F | wind direction | speed MPH | gust MPH | rain 1hr in | rain 24hr in | rain mn in | humidity % | barometer mb |
| 20260505024535 | 51 | 281 | 0.0 | 0.0 | 0.00 | 0.00 | 0.00 | 86 | 1010.2 |
| 20260505023015 | 51 | 281 | 0.0 | 0.0 | 0.00 | 0.00 | 0.00 | 85 | 1010.2 |
| 20260505021517 | 52 | 281 | 0.0 | 0.0 | 0.00 | 0.00 | 0.00 | 84 | 1010.3 |
| 20260505020010 | 53 | 281 | 0.0 | 0.0 | 0.00 | 0.00 | 0.00 | 83 | 1010.4 |
| 20260505014508 | 54 | 281 | 0.0 | 0.0 | 0.00 | 0.00 | 0.00 | 80 | 1010.6 |
| 20260505013013 | 55 | 281 | 0.0 | 0.0 | 0.00 | 0.00 | 0.00 | 80 | 1010.7 |
| 20260505011502 | 55 | 281 | 0.0 | 0.0 | 0.00 | 0.00 | 0.00 | 77 | 1010.8 |
| 20260505010058 | 56 | 281 | 0.0 | 0.0 | 0.00 | 0.00 | 0.00 | 76 | 1011.0 |
| 20260505004557 | 56 | 281 | 0.0 | 0.0 | 0.00 | 0.00 | 0.00 | 76 | 1010.9 |
| 20260505003058 | 57 | 281 | 0.0 | 0.0 | 0.00 | 0.00 | 0.00 | 75 | 1011.0 |
| 20260505001557 | 57 | 281 | 0.0 | 0.0 | 0.00 | 0.00 | 0.00 | 75 | 1011.0 |
| 20260504234605 | 58 | 281 | 0.0 | 0.0 | 0.00 | 0.00 | 0.00 | 73 | 1011.1 |
| 20260504233152 | 58 | 281 | 0.0 | 0.0 | 0.00 | 0.00 | 0.00 | 73 | 1011.3 |
| 20260504231559 | 58 | 281 | 0.0 | 0.0 | 0.00 | 0.00 | 0.00 | 72 | 1011.4 |
| 20260504230047 | 58 | 281 | 0.0 | 0.0 | 0.00 | 0.00 | 0.00 | 72 | 1011.5 |
| 20260504224547 | 58 | 281 | 0.0 | 0.0 | 0.00 | 0.00 | 0.00 | 71 | 1011.5 |
| 20260504223045 | 58 | 281 | 0.0 | 0.0 | 0.00 | 0.00 | 0.00 | 73 | 1011.5 |
| 20260504221551 | 59 | 281 | 0.0 | 0.0 | 0.00 | 0.00 | 0.00 | 73 | 1011.6 |
| 20260504220041 | 59 | 281 | 0.0 | 0.0 | 0.00 | 0.00 | 0.00 | 71 | 1011.7 |
| 20260504214540 | 59 | 281 | 0.0 | 0.0 | 0.00 | 0.00 | 0.00 | 71 | 1011.8 |
| 20260504213040 | 60 | 281 | 0.0 | 0.0 | 0.00 | 0.00 | 0.00 | 69 | 1011.9 |
| 20260504211548 | 60 | 281 | 0.0 | 0.0 | 0.00 | 0.00 | 0.00 | 68 | 1012.1 |
| 20260504210059 | 61 | 281 | 0.0 | 0.0 | 0.00 | 0.00 | 0.00 | 67 | 1012.4 |
| 20260504204547 | 61 | 281 | 0.0 | 0.0 | 0.00 | 0.00 | 0.00 | 66 | 1012.4 |
| 20260504203044 | 62 | 281 | 0.0 | 0.0 | 0.00 | 0.00 | 0.00 | 64 | 1012.5 |
| 20260504201545 | 63 | 281 | 0.0 | 0.0 | 0.00 | 0.00 | 0.00 | 62 | 1012.6 |
| 20260504200038 | 63 | 281 | 0.0 | 0.0 | 0.00 | 0.00 | 0.00 | 58 | 1012.6 |
| 20260504194558 | 63 | 281 | 0.0 | 2.0 | 0.00 | 0.00 | 0.00 | 58 | 1012.3 |
| 20260504193037 | 64 | 283 | 0.0 | 2.0 | 0.00 | 0.00 | 0.00 | 57 | 1012.3 |
| 20260504191545 | 64 | 282 | 0.0 | 2.0 | 0.00 | 0.00 | 0.00 | 56 | 1012.2 |
| 20260504190044 | 64 | 282 | 0.0 | 1.0 | 0.00 | 0.00 | 0.00 | 55 | 1011.9 |
| 20260504184540 | 65 | 282 | 0.0 | 2.0 | 0.00 | 0.00 | 0.00 | 54 | 1011.8 |
| 20260504183034 | 65 | 277 | 0.0 | 1.0 | 0.00 | 0.00 | 0.00 | 53 | 1011.7 |
| 20260504181550 | 66 | 261 | 0.0 | 3.0 | 0.00 | 0.00 | 0.00 | 52 | 1011.6 |
| 20260504180055 | 67 | 277 | 1.0 | 5.0 | 0.00 | 0.00 | 0.00 | 52 | 1011.5 |
| 20260504174534 | 67 | 273 | 0.0 | 4.0 | 0.00 | 0.00 | 0.00 | 51 | 1011.3 |
| 20260504173037 | 67 | 250 | 0.0 | 3.0 | 0.00 | 0.00 | 0.00 | 50 | 1011.1 |
| 20260504171533 | 68 | 290 | 0.0 | 1.0 | 0.00 | 0.00 | 0.00 | 48 | 1010.9 |
| 20260504081537 | 65 | 184 | 0.0 | 2.0 | 0.00 | 0.00 | 0.00 | 52 | 1014.3 |
| 20260504050014 | 52 | 5 | 0.0 | 1.0 | 0.00 | 0.00 | 0.00 | 73 | 1014.6 |
| 20260504044514 | 52 | 360 | 0.0 | 1.0 | 0.00 | 0.00 | 0.00 | 74 | 1014.5 |
| 20260504043013 | 52 | 360 | 0.0 | 1.0 | 0.00 | 0.00 | 0.00 | 73 | 1014.5 |
| 20260504041511 | 52 | 360 | 0.0 | 0.0 | 0.00 | 0.00 | 0.00 | 72 | 1014.4 |
| 20260504040011 | 52 | 360 | 0.0 | 0.0 | 0.00 | 0.00 | 0.00 | 71 | 1014.3 |
| 20260504034508 | 53 | 360 | 0.0 | 0.0 | 0.00 | 0.00 | 0.00 | 69 | 1014.4 |
| 20260504033008 | 53 | 360 | 0.0 | 1.0 | 0.00 | 0.00 | 0.00 | 69 | 1014.4 |
| 20260504031508 | 53 | 360 | 0.0 | 0.0 | 0.00 | 0.00 | 0.00 | 69 | 1014.4 |
| 20260504030007 | 53 | 360 | 0.0 | 1.0 | 0.00 | 0.00 | 0.00 | 68 | 1014.3 |